SES-12

Last updated on Tue Oct 08 2024 00:02:41 GMT+0000 (Coordinated Universal Time)

1 43488U 18049A 24281.62090443 -.00000259 00000+0 00000+0 0 9999 2 43488 0.0127 99.7824 0001875 142.9751 92.5465 1.00271116 23227
UTC large
Height (km)
Speed (km/s)
/
Latitude / Longitude
Inclination (degrees)
Orbital Period (minutes)
Azimuth
Elevation
Range (km)
Doppler Factor

Next 0 passes for location: London (51.5072 / 0.1276)

Sorry there are no passes over London.